| time (UTC) | temp F | wind direction | speed MPH | gust MPH | rain 1hr in | rain 24hr in | rain mn in | humidity % | barometer mb |
| 20260831114854 | 88 | 190 | 11.0 | 0.0 | 0.00 | 0.00 | 0.00 | 31 | 1018.0 |
| 20260831113353 | 88 | 190 | 11.0 | 0.0 | 0.00 | 0.00 | 0.00 | 31 | 1018.0 |
| 20260831111914 | 88 | 190 | 11.0 | 0.0 | 0.00 | 0.00 | 0.00 | 31 | 1018.0 |
| 20260831110353 | 0 | 0.0 | 0.0 | 0.00 | 0.00 | 0.00 | |||
| 20260831104854 | 86 | 160 | 7.0 | 0.0 | 0.00 | 0.00 | 0.00 | 31 | 1018.0 |
| 20260831103354 | 86 | 160 | 7.0 | 0.0 | 0.00 | 0.00 | 0.00 | 31 | 1018.0 |
| 20260831101854 | 86 | 160 | 7.0 | 0.0 | 0.00 | 0.00 | 0.00 | 31 | 1018.0 |
| 20260831100353 | 86 | 160 | 7.0 | 0.0 | 0.00 | 0.00 | 0.00 | 31 | 1018.0 |
| 20260831094853 | 82 | 170 | 7.0 | 0.0 | 0.00 | 0.00 | 0.00 | 35 | 1018.0 |
| 20260831093514 | 0 | 0.0 | 0.0 | 0.00 | 0.00 | 0.00 | |||
| 20260831091854 | 82 | 170 | 7.0 | 0.0 | 0.00 | 0.00 | 0.00 | 35 | 1018.0 |
| 20260831090354 | 82 | 170 | 7.0 | 0.0 | 0.00 | 0.00 | 0.00 | 35 | 1018.0 |
| 20260831084853 | 0 | 0.0 | 0.0 | 0.00 | 0.00 | 0.00 | |||
| 20260831083353 | 0 | 0.0 | 0.0 | 0.00 | 0.00 | 0.00 | |||
| 20260831082015 | 0 | 0.0 | 0.0 | 0.00 | 0.00 | 0.00 | |||
| 20260831080353 | 0 | 0.0 | 0.0 | 0.00 | 0.00 | 0.00 | |||
| 20260831074916 | 0 | 0.0 | 0.0 | 0.00 | 0.00 | 0.00 | |||
| 20260831073353 | 0 | 0.0 | 0.0 | 0.00 | 0.00 | 0.00 | |||
| 20260831071923 | 0 | 0.0 | 0.0 | 0.00 | 0.00 | 0.00 | |||
| 20260831070355 | 0 | 0.0 | 0.0 | 0.00 | 0.00 | 0.00 | |||
| 20260831064853 | 72 | 3.0 | 0.0 | 0.00 | 0.00 | 0.00 | 61 | 1019.0 | |
| 20260831063353 | 72 | 3.0 | 0.0 | 0.00 | 0.00 | 0.00 | 61 | 1019.0 | |
| 20260831061855 | 72 | 3.0 | 0.0 | 0.00 | 0.00 | 0.00 | 61 | 1019.0 | |
| 20260831060354 | 72 | 3.0 | 0.0 | 0.00 | 0.00 | 0.00 | 61 | 1019.0 | |
| 20260831054854 | 63 | 2.0 | 0.0 | 0.00 | 0.00 | 0.00 | 77 | 1018.0 | |
| 20260831053353 | 63 | 2.0 | 0.0 | 0.00 | 0.00 | 0.00 | 77 | 1018.0 | |
| 20260831051854 | 63 | 2.0 | 0.0 | 0.00 | 0.00 | 0.00 | 77 | 1018.0 | |
| 20260831050353 | 0 | 0.0 | 0.0 | 0.00 | 0.00 | 0.00 | |||
| 20260831044855 | 59 | 3.0 | 0.0 | 0.00 | 0.00 | 0.00 | 88 | 1018.0 | |
| 20260831043358 | 59 | 3.0 | 0.0 | 0.00 | 0.00 | 0.00 | 88 | 1018.0 | |
| 20260831041853 | 59 | 3.0 | 0.0 | 0.00 | 0.00 | 0.00 | 88 | 1018.0 | |
| 20260831040353 | 59 | 3.0 | 0.0 | 0.00 | 0.00 | 0.00 | 88 | 1018.0 | |
| 20260831034854 | 63 | 3.0 | 0.0 | 0.00 | 0.00 | 0.00 | 73 | 1018.0 | |
| 20260831033354 | 63 | 3.0 | 0.0 | 0.00 | 0.00 | 0.00 | 73 | 1018.0 | |
| 20260831031854 | 63 | 3.0 | 0.0 | 0.00 | 0.00 | 0.00 | 73 | 1018.0 | |
| 20260831030354 | 63 | 3.0 | 0.0 | 0.00 | 0.00 | 0.00 | 73 | 1018.0 | |
| 20260831024853 | 61 | 3.0 | 0.0 | 0.00 | 0.00 | 0.00 | 83 | 1018.0 | |
| 20260831023401 | 61 | 3.0 | 0.0 | 0.00 | 0.00 | 0.00 | 83 | 1018.0 | |
| 20260831021853 | 0 | 0.0 | 0.0 | 0.00 | 0.00 | 0.00 | |||
| 20260831020355 | 0 | 0.0 | 0.0 | 0.00 | 0.00 | 0.00 | |||
| 20260831014850 | 63 | 3.0 | 0.0 | 0.00 | 0.00 | 0.00 | 77 | 1018.0 | |
| 20260831013353 | 63 | 3.0 | 0.0 | 0.00 | 0.00 | 0.00 | 77 | 1018.0 | |
| 20260831011854 | 63 | 3.0 | 0.0 | 0.00 | 0.00 | 0.00 | 77 | 1018.0 | |
| 20260831010353 | 63 | 3.0 | 0.0 | 0.00 | 0.00 | 0.00 | 77 | 1018.0 | |
| 20260831004854 | 63 | 3.0 | 0.0 | 0.00 | 0.00 | 0.00 | 77 | 1018.0 | |
| 20260831003353 | 64 | 2.0 | 0.0 | 0.00 | 0.00 | 0.00 | 73 | 1018.0 | |
| 20260831001853 | 64 | 2.0 | 0.0 | 0.00 | 0.00 | 0.00 | 73 | 1018.0 | |
| 20260831000355 | 64 | 2.0 | 0.0 | 0.00 | 0.00 | 0.00 | 73 | 1018.0 | |
| 20260830234850 | 64 | 3.0 | 0.0 | 0.00 | 0.00 | 0.00 | 83 | 1018.0 | |
| 20260830233353 | 64 | 3.0 | 0.0 | 0.00 | 0.00 | 0.00 | 83 | 1018.0 | |
| 20260830231854 | 64 | 3.0 | 0.0 | 0.00 | 0.00 | 0.00 | 83 | 1018.0 | |
| 20260830230354 | 0 | 0.0 | 0.0 | 0.00 | 0.00 | 0.00 | |||
| 20260830224853 | 66 | 3.0 | 0.0 | 0.00 | 0.00 | 0.00 | 78 | 1018.0 | |
| 20260830223353 | 66 | 3.0 | 0.0 | 0.00 | 0.00 | 0.00 | 78 | 1018.0 | |
| 20260830221853 | 66 | 3.0 | 0.0 | 0.00 | 0.00 | 0.00 | 78 | 1018.0 | |
| 20260830220354 | 66 | 3.0 | 0.0 | 0.00 | 0.00 | 0.00 | 78 | 1018.0 | |
| 20260830214853 | 66 | 3.0 | 0.0 | 0.00 | 0.00 | 0.00 | 78 | 1018.0 | |
| 20260830213353 | 68 | 3.0 | 0.0 | 0.00 | 0.00 | 0.00 | 73 | 1018.0 | |
| 20260830211853 | 68 | 3.0 | 0.0 | 0.00 | 0.00 | 0.00 | 73 | 1018.0 | |
| 20260830210353 | 68 | 3.0 | 0.0 | 0.00 | 0.00 | 0.00 | 73 | 1018.0 | |
| 20260830204853 | 72 | 3.0 | 0.0 | 0.00 | 0.00 | 0.00 | 61 | 1018.0 | |
| 20260830203354 | 72 | 3.0 | 0.0 | 0.00 | 0.00 | 0.00 | 61 | 1018.0 | |
| 20260830201853 | 72 | 3.0 | 0.0 | 0.00 | 0.00 | 0.00 | 61 | 1018.0 | |
| 20260830200353 | 72 | 3.0 | 0.0 | 0.00 | 0.00 | 0.00 | 61 | 1018.0 | |
| 20260830194853 | 72 | 2.0 | 0.0 | 0.00 | 0.00 | 0.00 | 65 | 1018.0 | |
| 20260830193354 | 72 | 2.0 | 0.0 | 0.00 | 0.00 | 0.00 | 65 | 1018.0 | |
| 20260830191855 | 72 | 2.0 | 0.0 | 0.00 | 0.00 | 0.00 | 65 | 1018.0 | |
| 20260830190355 | 72 | 2.0 | 0.0 | 0.00 | 0.00 | 0.00 | 65 | 1018.0 | |
| 20260830184854 | 73 | 2.0 | 0.0 | 0.00 | 0.00 | 0.00 | 61 | 1017.0 | |
| 20260830183422 | 73 | 2.0 | 0.0 | 0.00 | 0.00 | 0.00 | 61 | 1017.0 | |
| 20260830181854 | 73 | 2.0 | 0.0 | 0.00 | 0.00 | 0.00 | 61 | 1017.0 | |
| 20260830180354 | 73 | 2.0 | 0.0 | 0.00 | 0.00 | 0.00 | 61 | 1017.0 | |
| 20260830174853 | 79 | 3.0 | 0.0 | 0.00 | 0.00 | 0.00 | 48 | 1017.0 | |
| 20260830173353 | 79 | 3.0 | 0.0 | 0.00 | 0.00 | 0.00 | 48 | 1017.0 | |
| 20260830171853 | 79 | 3.0 | 0.0 | 0.00 | 0.00 | 0.00 | 48 | 1017.0 | |
| 20260830170354 | 79 | 3.0 | 0.0 | 0.00 | 0.00 | 0.00 | 48 | 1017.0 | |
| 20260830164853 | 82 | 3.0 | 0.0 | 0.00 | 0.00 | 0.00 | 42 | 1017.0 | |
| 20260830163356 | 82 | 3.0 | 0.0 | 0.00 | 0.00 | 0.00 | 42 | 1017.0 | |
| 20260830161851 | 82 | 3.0 | 0.0 | 0.00 | 0.00 | 0.00 | 42 | 1017.0 | |
| 20260830160354 | 82 | 3.0 | 0.0 | 0.00 | 0.00 | 0.00 | 42 | 1017.0 | |
| 20260830154855 | 84 | 3.0 | 0.0 | 0.00 | 0.00 | 0.00 | 40 | 1017.0 | |
| 20260830153354 | 84 | 3.0 | 0.0 | 0.00 | 0.00 | 0.00 | 40 | 1017.0 | |
| 20260830151853 | 84 | 3.0 | 0.0 | 0.00 | 0.00 | 0.00 | 40 | 1017.0 | |
| 20260830150356 | 84 | 3.0 | 0.0 | 0.00 | 0.00 | 0.00 | 40 | 1017.0 | |
| 20260830144854 | 84 | 200 | 5.0 | 0.0 | 0.00 | 0.00 | 0.00 | 43 | 1017.0 |
| 20260830143354 | 84 | 200 | 5.0 | 0.0 | 0.00 | 0.00 | 0.00 | 43 | 1017.0 |
| 20260830141853 | 84 | 200 | 5.0 | 0.0 | 0.00 | 0.00 | 0.00 | 43 | 1017.0 |
| 20260830140353 | 84 | 200 | 5.0 | 0.0 | 0.00 | 0.00 | 0.00 | 43 | 1017.0 |
| 20260830134853 | 84 | 220 | 7.0 | 0.0 | 0.00 | 0.00 | 0.00 | 40 | 1017.0 |
| 20260830133407 | 84 | 220 | 7.0 | 0.0 | 0.00 | 0.00 | 0.00 | 40 | 1017.0 |
| 20260830131854 | 84 | 220 | 7.0 | 0.0 | 0.00 | 0.00 | 0.00 | 40 | 1017.0 |
| 20260830130353 | 84 | 220 | 7.0 | 0.0 | 0.00 | 0.00 | 0.00 | 40 | 1017.0 |
| 20260830124853 | 84 | 3.0 | 0.0 | 0.00 | 0.00 | 0.00 | 40 | 1018.0 | |
| 20260830123353 | 84 | 3.0 | 0.0 | 0.00 | 0.00 | 0.00 | 40 | 1018.0 | |
| 20260830122016 | 0 | 0.0 | 0.0 | 0.00 | 0.00 | 0.00 | |||
| 20260830120353 | 84 | 3.0 | 0.0 | 0.00 | 0.00 | 0.00 | 40 | 1018.0 |